When you browse on this site, cookies collect data to enhance your experience and personalize the content and advertising you see.
Visit our Privacy Policy to learn more. By continuing to use the site, you agree to this use of cookies and data.
  • In Österreich
  • Länderverzeichnis
  • Für 7 Tage
  • Wassertemperatur
  • Wetterkarte
  • News
  • Widgets
  • user-avatar
    Anmelden

    Stündliche Wetter Volostnovka

    Heute, 2 Juni, Dienstag

    Zeit Temperatur Niederschläge Wind Luftdruck Luftfeuchtigkeit
    00:00 +18°C° 0 mm 1 m/S 750 mmHg 66%
    01:00 +15°C° 0 mm 0 m/S 750 mmHg 69%
    02:00 +15°C° 0 mm 0 m/S 750 mmHg 71%
    03:00 +15°C° 0 mm 0 m/S 750 mmHg 73%
    04:00 +15°C° 0 mm 1 m/S 750 mmHg 74%
    05:00 +18°C° 0 mm 1 m/S 750 mmHg 71%
    06:00 +18°C° 0 mm 2 m/S 750 mmHg 68%
    07:00 +19°C° 0 mm 2 m/S 750 mmHg 66%
    08:00 +21°C° 0 mm 2 m/S 750 mmHg 61%
    09:00 +23°C° 0 mm 2 m/S 750 mmHg 56%
    10:00 +24°C° 0 mm 2 m/S 750 mmHg 50%
    11:00 +25°C° 0 mm 2 m/S 750 mmHg 46%
    12:00 +26°C° 0 mm 1 m/S 750 mmHg 43%
    13:00 +27°C° 0 mm 1 m/S 750 mmHg 39%
    14:00 +27°C° 0 mm 1 m/S 750 mmHg 39%
    15:00 +27°C° 0 mm 1 m/S 750 mmHg 38%
    16:00 +28°C° 0 mm 2 m/S 750 mmHg 36%
    17:00 +26°C° 0 mm 3 m/S 750 mmHg 46%
    18:00 +23°C° 0 mm 4 m/S 750 mmHg 56%
    19:00 +22°C° 0 mm 5 m/S 750 mmHg 66%
    20:00 +20°C° 0 mm 5 m/S 750 mmHg 68%
    21:00 +19°C° 0 mm 5 m/S 750 mmHg 71%
    22:00 +17°C° 0 mm 5 m/S 750 mmHg 73%
    23:00 +17°C° 0 mm 5 m/S 750 mmHg 71%

    Morgen, 3 Juni, Mittwoch

    Zeit Temperatur Niederschläge Wind Luftdruck Luftfeuchtigkeit
    00:00 +17°C° 0 mm 5 m/S 749 mmHg 70%
    01:00 +16°C° 0 mm 5 m/S 749 mmHg 69%
    02:00 +16°C° 0 mm 5 m/S 749 mmHg 70%
    03:00 +16°C° 0 mm 5 m/S 749 mmHg 71%
    04:00 +15°C° 0 mm 4 m/S 749 mmHg 72%
    05:00 +17°C° 0 mm 4 m/S 749 mmHg 72%
    06:00 +17°C° 0 mm 5 m/S 749 mmHg 71%
    07:00 +19°C° 0 mm 5 m/S 749 mmHg 70%
    08:00 +21°C° 0 mm 5 m/S 749 mmHg 65%
    09:00 +23°C° 0 mm 5 m/S 749 mmHg 61%
    10:00 +25°C° 0 mm 5 m/S 749 mmHg 56%
    11:00 +26°C° 0 mm 5 m/S 749 mmHg 53%
    12:00 +27°C° 0 mm 5 m/S 749 mmHg 49%
    13:00 +28°C° 0 mm 6 m/S 749 mmHg 46%
    14:00 +28°C° 0 mm 6 m/S 749 mmHg 46%
    15:00 +28°C° 0 mm 6 m/S 749 mmHg 46%
    16:00 +28°C° 0 mm 6 m/S 749 mmHg 47%
    17:00 +27°C° 0 mm 5 m/S 748 mmHg 52%
    18:00 +26°C° 0 mm 4 m/S 748 mmHg 57%
    19:00 +25°C° 0 mm 4 m/S 748 mmHg 63%
    20:00 +23°C° 0 mm 5 m/S 748 mmHg 65%
    21:00 +22°C° 0 mm 6 m/S 748 mmHg 67%
    22:00 +21°C° 0 mm 8 m/S 749 mmHg 68%
    23:00 +21°C° 0 mm 8 m/S 748 mmHg 67%

    übermorgen, 4 Juni, Donnerstag

    Zeit Temperatur Niederschläge Wind Luftdruck Luftfeuchtigkeit
    00:00 +20°C° 0 mm 8 m/S 748 mmHg 66%
    01:00 +20°C° 0 mm 8 m/S 747 mmHg 65%
    02:00 +20°C° 0 mm 7 m/S 747 mmHg 64%
    03:00 +18°C° 0 mm 7 m/S 747 mmHg 63%
    04:00 +18°C° 0 mm 7 m/S 747 mmHg 63%
    05:00 +18°C° 0 mm 7 m/S 747 mmHg 64%
    06:00 +18°C° 0 mm 7 m/S 748 mmHg 64%
    07:00 +20°C° 0 mm 8 m/S 748 mmHg 65%
    08:00 +20°C° 0.1 mm 8 m/S 748 mmHg 63%
    09:00 +21°C° 0.1 mm 8 m/S 748 mmHg 61%
    10:00 +22°C° 0.1 mm 8 m/S 749 mmHg 58%
    11:00 +22°C° 0 mm 8 m/S 748 mmHg 57%
    12:00 +23°C° 0 mm 8 m/S 748 mmHg 56%
    13:00 +23°C° 0 mm 9 m/S 748 mmHg 55%
    14:00 +23°C° 0.1 mm 8 m/S 748 mmHg 55%
    15:00 +23°C° 0.1 mm 8 m/S 749 mmHg 56%
    16:00 +23°C° 0.1 mm 7 m/S 749 mmHg 57%
    17:00 +22°C° 0.1 mm 7 m/S 749 mmHg 59%
    18:00 +21°C° 0.1 mm 7 m/S 749 mmHg 60%
    19:00 +21°C° 0.1 mm 6 m/S 749 mmHg 62%
    20:00 +20°C° 0 mm 6 m/S 749 mmHg 61%
    21:00 +20°C° 0 mm 6 m/S 749 mmHg 60%
    22:00 +18°C° 0 mm 7 m/S 749 mmHg 58%
    23:00 +18°C° 0 mm 7 m/S 749 mmHg 59%

    5 Juni, Freitag

    Zeit Temperatur Niederschläge Wind Luftdruck Luftfeuchtigkeit
    00:00 +18°C° 0 mm 7 m/S 749 mmHg 59%
    01:00 +17°C° 0 mm 7 m/S 749 mmHg 59%
    02:00 +17°C° 0 mm 7 m/S 750 mmHg 57%
    03:00 +17°C° 0 mm 7 m/S 750 mmHg 54%
    04:00 +17°C° 0 mm 7 m/S 750 mmHg 52%
    05:00 +17°C° 0 mm 7 m/S 750 mmHg 54%
    06:00 +16°C° 0 mm 7 m/S 750 mmHg 57%
    07:00 +16°C° 0 mm 7 m/S 750 mmHg 60%
    08:00 +16°C° 0 mm 7 m/S 751 mmHg 61%
    09:00 +16°C° 0 mm 7 m/S 751 mmHg 62%
    10:00 +16°C° 0 mm 7 m/S 751 mmHg 63%
    11:00 +17°C° 0.1 mm 7 m/S 751 mmHg 63%
    12:00 +17°C° 0.1 mm 7 m/S 751 mmHg 63%
    13:00 +18°C° 0.1 mm 7 m/S 751 mmHg 62%
    14:00 +18°C° 0.2 mm 7 m/S 751 mmHg 64%
    15:00 +17°C° 0.2 mm 7 m/S 751 mmHg 66%
    16:00 +17°C° 0.2 mm 7 m/S 751 mmHg 68%
    17:00 +17°C° 0 mm 7 m/S 751 mmHg 69%
    18:00 +16°C° 0 mm 8 m/S 751 mmHg 69%
    19:00 +16°C° 0 mm 8 m/S 751 mmHg 70%
    20:00 +16°C° 0.1 mm 8 m/S 751 mmHg 67%
    21:00 +16°C° 0.1 mm 8 m/S 751 mmHg 64%
    22:00 +16°C° 0.1 mm 8 m/S 751 mmHg 62%
    23:00 +15°C° 0.2 mm 7 m/S 751 mmHg 61%

    6 Juni, Samstag

    Zeit Temperatur Niederschläge Wind Luftdruck Luftfeuchtigkeit
    00:00 +15°C° 0.2 mm 7 m/S 751 mmHg 60%
    01:00 +15°C° 0.2 mm 6 m/S 751 mmHg 59%
    02:00 +15°C° 0.4 mm 6 m/S 751 mmHg 61%
    03:00 +14°C° 0.4 mm 6 m/S 751 mmHg 64%
    04:00 +13°C° 0.4 mm 6 m/S 751 mmHg 67%
    05:00 +14°C° 0.1 mm 6 m/S 751 mmHg 66%
    06:00 +14°C° 0.1 mm 6 m/S 752 mmHg 65%
    07:00 +15°C° 0.1 mm 7 m/S 752 mmHg 65%
    08:00 +16°C° 0.1 mm 7 m/S 752 mmHg 61%
    09:00 +17°C° 0.1 mm 7 m/S 752 mmHg 57%
    10:00 +18°C° 0.1 mm 7 m/S 752 mmHg 53%
    11:00 +20°C° 0 mm 6 m/S 752 mmHg 52%
    12:00 +20°C° 0 mm 6 m/S 752 mmHg 51%
    13:00 +21°C° 0 mm 5 m/S 753 mmHg 50%
    14:00 +20°C° 0 mm 5 m/S 753 mmHg 53%
    15:00 +19°C° 0 mm 5 m/S 753 mmHg 57%
    16:00 +19°C° 0 mm 4 m/S 753 mmHg 60%
    17:00 +19°C° 0 mm 4 m/S 753 mmHg 60%
    18:00 +19°C° 0 mm 4 m/S 753 mmHg 60%
    19:00 +18°C° 0 mm 4 m/S 753 mmHg 60%
    20:00 +17°C° 0 mm 4 m/S 753 mmHg 59%
    21:00 +15°C° 0 mm 4 m/S 754 mmHg 58%
    22:00 +14°C° 0 mm 4 m/S 754 mmHg 57%
    23:00 +14°C° 0 mm 3 m/S 754 mmHg 57%

    7 Juni, Sonntag

    Zeit Temperatur Niederschläge Wind Luftdruck Luftfeuchtigkeit
    00:00 +14°C° 0 mm 3 m/S 754 mmHg 57%
    01:00 +13°C° 0 mm 3 m/S 754 mmHg 57%
    02:00 +13°C° 0 mm 4 m/S 755 mmHg 56%
    03:00 +13°C° 0 mm 4 m/S 755 mmHg 55%
    04:00 +13°C° 0 mm 4 m/S 755 mmHg 55%
    05:00 +14°C° 0 mm 4 m/S 755 mmHg 55%
    06:00 +15°C° 0 mm 5 m/S 755 mmHg 56%
    07:00 +16°C° 0 mm 5 m/S 755 mmHg 56%
    08:00 +17°C° 0 mm 6 m/S 755 mmHg 53%
    09:00 +20°C° 0 mm 6 m/S 756 mmHg 49%
    10:00 +22°C° 0 mm 6 m/S 756 mmHg 46%
    11:00 +23°C° 0 mm 6 m/S 756 mmHg 42%
    12:00 +24°C° 0 mm 6 m/S 756 mmHg 39%
    13:00 +26°C° 0 mm 6 m/S 756 mmHg 36%
    14:00 +26°C° 0 mm 6 m/S 756 mmHg 37%
    15:00 +26°C° 0 mm 5 m/S 756 mmHg 37%
    16:00 +26°C° 0 mm 5 m/S 756 mmHg 38%
    17:00 +25°C° 0 mm 4 m/S 755 mmHg 43%
    18:00 +23°C° 0 mm 4 m/S 755 mmHg 48%
    19:00 +22°C° 0 mm 3 m/S 755 mmHg 53%
    20:00 +21°C° 0 mm 3 m/S 756 mmHg 56%
    21:00 +19°C° 0 mm 4 m/S 756 mmHg 59%
    22:00 +18°C° 0 mm 4 m/S 756 mmHg 61%
    23:00 +17°C° 0 mm 4 m/S 756 mmHg 63%
    Mehr zeigen